| time (UTC) | temp F | wind direction | speed knots | gust knots | rain 1hr in | rain 24hr in | rain mn in | humidity % | barometer mb |
| 20260906160745 | 86 | 68 | 5.2 | 7.0 | 0.00 | 0.00 | 0.00 | 71 | 1016.7 |
| 20260906153745 | 85 | 63 | 5.2 | 7.8 | 0.00 | 0.00 | 0.00 | 73 | 1016.5 |
| 20260906150745 | 83 | 81 | 5.2 | 7.8 | 0.00 | 0.00 | 0.00 | 75 | 1016.3 |
| 20260906140745 | 80 | 104 | 5.2 | 6.1 | 0.00 | 0.00 | 0.00 | 79 | 1016.4 |
| 20260906133745 | 79 | 76 | 5.2 | 7.8 | 0.00 | 0.00 | 0.00 | 83 | 1016.0 |
| 20260906130745 | 77 | 79 | 5.2 | 7.0 | 0.00 | 0.00 | 0.00 | 88 | 1016.1 |
| 20260906120745 | 75 | 91 | 3.5 | 3.5 | 0.00 | 0.00 | 0.00 | 93 | 1015.6 |
| 20260906113745 | 75 | 79 | 3.5 | 4.3 | 0.00 | 0.00 | 0.00 | 94 | 1015.4 |
| 20260906110745 | 75 | 81 | 4.3 | 5.2 | 0.00 | 0.00 | 0.00 | 93 | 1015.4 |
| 20260906100745 | 77 | 73 | 4.3 | 5.2 | 0.00 | 0.00 | 0.00 | 91 | 1015.0 |
| 20260906093745 | 77 | 80 | 3.5 | 5.2 | 0.00 | 0.00 | 0.00 | 89 | 1014.6 |
| 20260906090745 | 77 | 52 | 1.7 | 3.5 | 0.00 | 0.00 | 0.00 | 87 | 1014.4 |
| 20260906080745 | 75 | 262 | 0.0 | 0.9 | 0.00 | 0.00 | 0.00 | 91 | 1014.1 |
| 20260906073745 | 75 | 265 | 0.0 | 0.9 | 0.00 | 0.00 | 0.00 | 89 | 1014.1 |
| 20260906070745 | 74 | 49 | 0.0 | 0.9 | 0.00 | 0.00 | 0.00 | 91 | 1014.3 |
| 20260906060745 | 74 | 76 | 0.0 | 0.9 | 0.00 | 0.00 | 0.00 | 92 | 1014.5 |
| 20260906053745 | 73 | 238 | 0.0 | 0.9 | 0.00 | 0.00 | 0.00 | 94 | 1014.5 |
| 20260906050745 | 74 | 65 | 0.0 | 0.9 | 0.00 | 0.00 | 0.00 | 93 | 1014.6 |
| 20260906041745 | 75 | 254 | 0.9 | 1.7 | 0.00 | 0.00 | 0.00 | 91 | 1014.3 |
| 20260906033745 | 75 | 300 | 0.9 | 1.7 | 0.00 | 0.00 | 0.00 | 89 | 1014.0 |
| 20260906030745 | 76 | 282 | 0.9 | 0.9 | 0.00 | 0.00 | 0.00 | 88 | 1013.7 |
| 20260906025745 | 76 | 294 | 0.9 | 0.9 | 0.00 | 0.00 | 0.00 | 88 | 1013.6 |
| 20260906024745 | 76 | 235 | 0.9 | 0.9 | 0.00 | 0.00 | 0.00 | 87 | 1013.6 |
| 20260906020127 | 77 | 135 | 0.0 | 0.9 | 0.00 | 0.00 | 0.00 | 83 | 1013.0 |
| 20260906013127 | 80 | 286 | 0.9 | 1.7 | 0.00 | 0.00 | 0.00 | 76 | 1012.7 |
| 20260906010127 | 82 | 268 | 1.7 | 1.7 | 0.00 | 0.00 | 0.00 | 74 | 1012.4 |
| 20260906000127 | 90 | 52 | 2.6 | 3.5 | 0.00 | 0.00 | 0.00 | 53 | 1012.3 |
| 20260905233127 | 94 | 37 | 5.2 | 7.0 | 0.00 | 0.00 | 0.00 | 51 | 1012.3 |
| 20260905230127 | 97 | 338 | 0.0 | 1.7 | 0.00 | 0.00 | 0.00 | 43 | 1012.2 |
| 20260905220127 | 98 | 261 | 3.5 | 5.2 | 0.00 | 0.00 | 0.00 | 38 | 1012.3 |
| 20260905213127 | 98 | 272 | 2.6 | 3.5 | 0.00 | 0.00 | 0.00 | 37 | 1012.3 |
| 20260905210127 | 100 | 299 | 1.7 | 3.5 | 0.00 | 0.00 | 0.00 | 39 | 1012.5 |
| 20260905200127 | 98 | 44 | 3.5 | 5.2 | 0.00 | 0.00 | 0.00 | 43 | 1013.3 |
| 20260905193127 | 98 | 300 | 3.5 | 5.2 | 0.00 | 0.00 | 0.00 | 42 | 1013.5 |
| 20260905190127 | 98 | 287 | 5.2 | 7.8 | 0.00 | 0.00 | 0.00 | 44 | 1013.9 |
| 20260905180127 | 97 | 23 | 2.6 | 3.5 | 0.00 | 0.00 | 0.00 | 46 | 1014.5 |
| 20260905173127 | 96 | 88 | 1.7 | 3.5 | 0.00 | 0.00 | 0.00 | 50 | 1014.8 |
| 20260905170127 | 95 | 336 | 4.3 | 7.0 | 0.00 | 0.00 | 0.00 | 52 | 1015.0 |